sat.trackr.live / text

‹ back to catalog

GEESAT-4 10

NORAD 65128 · 2025-170K

PAYLOAD ACTIVE UNKNOWN

§ Identity

Operator
Country
PRC
Launch date
2025-08-08
Launch site
YSLA
Launch vehicle
Mass (kg)
RCS (m²)

External: N2YO · Heavens-Above · Gunter

§ Orbital elements

Epoch: 2026-09-21T21:31:40.612512Z

Period
97.14 min
Inclination
49.9792°
Eccentricity
0.0024555
Mean motion
14.82420600 rev/d
Perigee alt
604.5 km
Apogee alt
638.9 km
Semi-major
6,999.8 km
B*
1.3425e-4
RAAN
39.9585°
Arg perigee
301.2389°
Mean anomaly
58.6143°
Rev number
6,140

§ Raw data

GEESAT-4 101 65128U 25170K   26264.89699783  .00000863  00000+0  13425-3 0  99902 65128  49.9792  39.9585 0024555 301.2389  58.6143 14.82420600 61405

JSON: /api/v1/satellites/65128 · /tle

For live sub-satellite position, see the globe view (requires WebGL).

§ Visibility from observer

Set your observer location to see the next 7 days of passes ≥ 10°. The values pass through the URL so the page stays shareable.

No JS? Fill the form by hand. The geolocation button needs JavaScript.